N6GIW Weather Reports


time (UTC)temp
C
wind
direction
speed
KPH
gust
KPH
rain 1hr
cm
rain 24hr
cm
rain mn
cm
humidity
%
barometer
mb
20260506193503 23 42 8.0 19.3 0.00 0.00 0.00 29 1024.5
20260506193004 23 33 11.3 22.5 0.00 0.00 0.00 30 1024.5
20260506192003 23 34 8.0 19.3 0.00 0.00 0.00 28 1024.6
20260506191503 23 75 8.0 16.1 0.00 0.00 0.00 29 1024.6
20260506191003 22 10 11.3 19.3 0.00 0.00 0.00 28 1024.6
20260506190503 23 332 4.8 14.5 0.00 0.00 0.00 28 1024.8
20260506185502 23 32 12.9 24.1 0.00 0.00 0.00 28 1024.8
20260506185003 22 39 8.0 22.5 0.00 0.00 0.00 29 1024.8
20260506184503 22 17 14.5 24.1 0.00 0.00 0.00 28 1024.8
20260506184003 22 32 12.9 22.5 0.00 0.00 0.00 29 1024.9
20260506183003 22 42 11.3 22.5 0.00 0.00 0.00 28 1025.0
20260506182503 22 22 9.7 24.1 0.00 0.00 0.00 28 1024.8
20260506182003 22 11 11.3 24.1 0.00 0.00 0.00 28 1024.8
20260506181503 22 343 16.1 27.4 0.00 0.00 0.00 28 1024.7
20260506180503 22 19 16.1 24.1 0.00 0.00 0.00 28 1024.7
20260506180004 22 17 11.3 24.1 0.00 0.00 0.00 29 1024.7
20260506175503 21 11 16.1 25.7 0.00 0.00 0.00 28 1024.7
20260506175003 21 5 12.9 22.5 0.00 0.00 0.00 30 1024.7
20260506174503 21 8 16.1 22.5 0.00 0.00 0.00 30 1024.7
20260506174004 21 347 14.5 24.1 0.00 0.00 0.00 30 1024.7
20260506173503 21 24 16.1 24.1 0.00 0.00 0.00 30 1024.7
20260506173003 21 12 16.1 20.9 0.00 0.00 0.00 30 1024.6
20260506172503 21 4 16.1 24.1 0.00 0.00 0.00 29 1024.6
20260506172003 21 346 14.5 20.9 0.00 0.00 0.00 29 1024.6
20260506171503 21 9 14.5 20.9 0.00 0.00 0.00 29 1024.5
20260506171003 21 346 14.5 22.5 0.00 0.00 0.00 29 1024.4
20260506170503 21 357 14.5 22.5 0.00 0.00 0.00 30 1024.4
20260506170003 21 2 12.9 20.9 0.00 0.00 0.00 30 1024.4
20260506165503 20 20 12.9 19.3 0.00 0.00 0.00 32 1024.3
20260506165003 20 42 6.4 19.3 0.00 0.00 0.00 34 1024.4
20260506164504 20 49 8.0 19.3 0.00 0.00 0.00 35 1024.3
20260506164003 19 39 4.8 20.9 0.00 0.00 0.00 36 1024.3
20260506163003 19 51 9.7 19.3 0.00 0.00 0.00 37 1024.3
20260506162503 18 39 11.3 20.9 0.00 0.00 0.00 37 1024.0
20260506162003 18 42 11.3 19.3 0.00 0.00 0.00 37 1024.0
20260506161503 18 39 8.0 19.3 0.00 0.00 0.00 37 1024.0
20260506161004 18 34 9.7 20.9 0.00 0.00 0.00 38 1023.9
20260506160504 19 35 11.3 19.3 0.00 0.00 0.00 35 1023.9
20260506160004 19 32 9.7 19.3 0.00 0.00 0.00 34 1023.9
20260506155504 19 83 4.8 9.7 0.00 0.00 0.00 34 1023.9
20260506155003 18 105 3.2 4.8 0.00 0.00 0.00 34 1023.9
20260506154504 18 105 1.6 4.8 0.00 0.00 0.00 35 1024.1
20260506154003 18 133 0.0 3.2 0.00 0.00 0.00 35 1024.0
20260506153504 18 133 3.2 4.8 0.00 0.00 0.00 36 1024.0
20260506153004 17 135 4.8 8.0 0.00 0.00 0.00 36 1024.1
20260506152503 17 112 1.6 8.0 0.00 0.00 0.00 37 1024.1
20260506152003 17 28 1.6 4.8 0.00 0.00 0.00 38 1024.0
20260506151004 16 24 3.2 4.8 0.00 0.00 0.00 39 1024.0
20260506150504 16 173 3.2 11.3 0.00 0.00 0.00 39 1024.1
20260506150005 16 150 6.4 9.7 0.00 0.00 0.00 41 1024.2
20260506145503 16 150 6.4 9.7 0.00 0.00 0.00 41 1024.1
20260506145003 15 167 4.8 4.8 0.00 0.00 0.00 41 1024.2
20260506144503 15 205 0.0 3.2 0.00 0.00 0.00 42 1024.2
20260506144005 15 205 1.6 3.2 0.00 0.00 0.00 43 1024.2
20260506143503 15 205 0.0 3.2 0.00 0.00 0.00 43 1024.2
20260506143004 14 205 0.0 3.2 0.00 0.00 0.00 44 1024.2
20260506142504 14 205 0.0 1.6 0.00 0.00 0.00 45 1023.9
20260506142003 13 205 0.0 1.6 0.00 0.00 0.00 45 1023.9
20260506141504 13 205 0.0 4.8 0.00 0.00 0.00 45 1023.7
20260506140504 12 221 0.0 3.2 0.00 0.00 0.00 47 1023.7
20260506140003 12 221 0.0 0.0 0.00 0.00 0.00 47 1023.5
20260506135003 11 221 0.0 0.0 0.00 0.00 0.00 49 1023.5
20260506134004 10 221 0.0 0.0 0.00 0.00 0.00 51 1023.4
20260506133503 9 221 0.0 0.0 0.00 0.00 0.00 52 1023.3
20260506133004 9 221 0.0 1.6 0.00 0.00 0.00 53 1023.2
20260506132504 8 225 0.0 1.6 0.00 0.00 0.00 55 1023.2
20260506132003 8 225 0.0 0.0 0.00 0.00 0.00 55 1023.1
20260506131503 8 225 0.0 0.0 0.00 0.00 0.00 55 1023.0
20260506130503 8 225 1.6 4.8 0.00 0.00 0.00 55 1022.9
20260506130003 7 226 1.6 4.8 0.00 0.00 0.00 56 1022.9
20260506125003 7 225 0.0 0.0 0.00 0.00 0.00 56 1022.8
20260506124503 8 225 0.0 1.6 0.00 0.00 0.00 56 1022.7
20260506123503 8 225 0.0 0.0 0.00 0.00 0.00 55 1022.6
20260506123004 8 225 0.0 1.6 0.00 0.00 0.00 55 1022.6
20260506122504 8 225 1.6 3.2 0.00 0.00 0.00 56 1022.7
20260506122003 8 223 0.0 1.6 0.00 0.00 0.00 57 1022.7
20260506121503 8 222 1.6 3.2 0.00 0.00 0.00 57 1022.7
20260506121004 8 220 1.6 4.8 0.00 0.00 0.00 58 1022.6
20260506120504 7 237 1.6 4.8 0.00 0.00 0.00 58 1022.6
20260506115503 7 235 0.0 3.2 0.00 0.00 0.00 57 1022.6
20260506114003 7 235 1.6 4.8 0.00 0.00 0.00 58 1022.4
20260506113503 7 243 3.2 4.8 0.00 0.00 0.00 59 1022.4
20260506113003 7 242 1.6 4.8 0.00 0.00 0.00 61 1022.4
20260506112503 6 240 0.0 0.0 0.00 0.00 0.00 62 1022.3
20260506112003 6 240 0.0 0.0 0.00 0.00 0.00 61 1022.4
20260506111003 7 240 0.0 0.0 0.00 0.00 0.00 60 1022.3
20260506110503 7 240 0.0 0.0 0.00 0.00 0.00 60 1022.3
20260506110003 7 240 0.0 0.0 0.00 0.00 0.00 60 1022.3
20260506105504 7 240 0.0 0.0 0.00 0.00 0.00 61 1022.2
20260506105004 7 240 0.0 0.0 0.00 0.00 0.00 61 1022.1
20260506104504 7 240 0.0 0.0 0.00 0.00 0.00 61 1022.1
20260506104003 7 240 0.0 0.0 0.00 0.00 0.00 59 1022.1
20260506103504 7 240 0.0 0.0 0.00 0.00 0.00 58 1022.1
20260506103003 7 240 0.0 0.0 0.00 0.00 0.00 59 1022.0
20260506102003 8 240 0.0 0.0 0.00 0.00 0.00 56 1022.0
20260506101503 8 240 0.0 0.0 0.00 0.00 0.00 55 1021.9
20260506101004 8 240 0.0 0.0 0.00 0.00 0.00 55 1022.0
20260506095503 9 240 0.0 3.2 0.00 0.00 0.00 55 1022.0
20260506094504 9 246 1.6 4.8 0.00 0.00 0.00 54 1021.9
20260506093503 10 237 1.6 4.8 0.00 0.00 0.00 53 1021.8
20260506093003 10 244 3.2 4.8 0.00 0.00 0.00 53 1021.8
20260506092504 10 219 0.0 3.2 0.00 0.00 0.00 53 1021.9
20260506092003 10 217 1.6 3.2 0.00 0.00 0.00 52 1021.9
20260506091503 10 213 0.0 4.8 0.00 0.00 0.00 52 1021.8
20260506091004 10 212 3.2 4.8 0.00 0.00 0.00 52 1021.8
20260506090504 10 215 3.2 8.0 0.00 0.00 0.00 52 1021.8
20260506090003 10 220 3.2 4.8 0.00 0.00 0.00 52 1022.0
20260506085504 10 217 1.6 4.8 0.00 0.00 0.00 53 1022.0
20260506085003 10 208 0.0 3.2 0.00 0.00 0.00 53 1022.0
20260506084003 10 206 3.2 8.0 0.00 0.00 0.00 53 1022.0
20260506083503 9 202 4.8 8.0 0.00 0.00 0.00 55 1022.1
20260506083004 9 203 3.2 4.8 0.00 0.00 0.00 56 1021.8
20260506082004 8 206 0.0 3.2 0.00 0.00 0.00 58 1021.8
20260506081503 8 206 3.2 4.8 0.00 0.00 0.00 60 1021.8
20260506081004 8 227 0.0 3.2 0.00 0.00 0.00 61 1021.7
20260506080503 8 246 0.0 0.0 0.00 0.00 0.00 58 1021.8
20260506073503 10 247 0.0 0.0 0.00 0.00 0.00 54 1022.1
20260506073004 11 247 0.0 1.6 0.00 0.00 0.00 52 1021.9
20260506072503 11 246 0.0 3.2 0.00 0.00 0.00 52 1021.9
20260506072003 12 258 0.0 0.0 0.00 0.00 0.00 51 1022.0
20260506071504 12 258 0.0 4.8 0.00 0.00 0.00 52 1021.9
20260506070504 12 241 3.2 4.8 0.00 0.00 0.00 54 1021.8
20260506062503 12 329 4.8 8.0 0.00 0.00 0.00 56 1021.5
20260506061004 11 239 0.0 1.6 0.00 0.00 0.00 56 1021.3
20260506060503 11 239 0.0 0.0 0.00 0.00 0.00 54 1021.3
20260506051003 13 299 1.6 9.7 0.00 0.00 0.00 51 1020.6
20260506050503 13 304 1.6 8.0 0.00 0.00 0.00 51 1020.6
20260506044504 12 242 0.0 3.2 0.00 0.00 0.00 53 1020.5
20260506044003 12 204 1.6 4.8 0.00 0.00 0.00 52 1020.4
20260506043503 12 206 3.2 11.3 0.00 0.00 0.00 52 1020.3
20260506042004 13 184 1.6 4.8 0.00 0.00 0.00 51 1020.2
20260506041503 13 176 0.0 0.0 0.00 0.00 0.00 50 1020.1
20260506041003 13 176 0.0 3.2 0.00 0.00 0.00 50 1020.1
20260506040004 15 285 0.0 3.2 0.00 0.00 0.00 48 1020.0
20260506035503 15 292 4.8 14.5 0.00 0.00 0.00 48 1019.9
20260506035004 15 316 4.8 9.7 0.00 0.00 0.00 47 1019.7
20260506034004 15 322 9.7 16.1 0.00 0.00 0.00 47 1019.5
20260506033503 15 320 8.0 19.3 0.00 0.00 0.00 47 1019.4
20260506033005 15 304 6.4 14.5 0.00 0.00 0.00 47 1019.3
20260506032503 15 308 9.7 16.1 0.00 0.00 0.00 46 1019.3
20260506032003 15 318 9.7 19.3 0.00 0.00 0.00 46 1019.2
20260506031503 15 315 14.5 19.3 0.00 0.00 0.00 46 1019.2
20260506031003 15 316 9.7 16.1 0.00 0.00 0.00 46 1019.2
20260506030503 15 322 9.7 19.3 0.00 0.00 0.00 45 1019.1
20260506030004 15 322 8.0 19.3 0.00 0.00 0.00 44 1019.1
20260506025503 15 319 11.3 19.3 0.00 0.00 0.00 44 1019.1
20260506025004 15 331 4.8 19.3 0.00 0.00 0.00 42 1019.0
20260506024503 16 307 8.0 19.3 0.00 0.00 0.00 42 1019.0
20260506024004 16 328 11.3 19.3 0.00 0.00 0.00 42 1019.0
20260506023504 16 324 14.5 19.3 0.00 0.00 0.00 41 1019.0
20260506023003 16 321 8.0 16.1 0.00 0.00 0.00 41 1018.7
20260506022504 16 340 11.3 19.3 0.00 0.00 0.00 39 1018.7
20260506022004 16 319 9.7 19.3 0.00 0.00 0.00 39 1018.7
20260506021505 16 320 14.5 20.9 0.00 0.00 0.00 38 1018.5
20260506021003 17 347 9.7 16.1 0.00 0.00 0.00 36 1018.3
20260506015503 17 351 14.5 20.9 0.00 0.00 0.00 35 1018.2
20260506015004 17 320 11.3 19.3 0.00 0.00 0.00 35 1018.3
20260506014003 17 336 9.7 19.3 0.00 0.00 0.00 34 1018.1
20260506013503 17 351 14.5 22.5 0.00 0.00 0.00 34 1018.1
20260506013003 18 327 9.7 19.3 0.00 0.00 0.00 32 1018.1
20260506012503 18 328 9.7 19.3 0.00 0.00 0.00 33 1018.1
20260506012004 18 320 11.3 19.3 0.00 0.00 0.00 33 1018.0
20260506011504 18 306 8.0 20.9 0.00 0.00 0.00 33 1018.1
20260506011004 18 301 12.9 19.3 0.00 0.00 0.00 34 1018.1
20260506010504 17 349 8.0 16.1 0.00 0.00 0.00 35 1018.2
20260506010004 17 239 3.2 9.7 0.00 0.00 0.00 40 1018.2
20260506005504 17 235 4.8 8.0 0.00 0.00 0.00 40 1018.2
20260506003504 18 242 8.0 32.2 0.00 0.00 0.00 37 1017.9
20260506003005 18 190 8.0 14.5 0.00 0.00 0.00 38 1018.1
20260506002503 17 218 4.8 11.3 0.00 0.00 0.00 38 1018.0
20260506001503 17 248 6.4 16.1 0.00 0.00 0.00 38 1018.0
20260506000503 17 217 8.0 14.5 0.00 0.00 0.00 38 1018.0
20260506000004 17 240 9.7 16.1 0.00 0.00 0.00 39 1018.1
20260505235503 17 256 11.3 19.3 0.00 0.00 0.00 39 1018.1
20260505235003 17 241 4.8 14.5 0.00 0.00 0.00 39 1018.1
20260505234503 17 219 6.4 14.5 0.00 0.00 0.00 39 1018.0
20260505234004 17 206 4.8 11.3 0.00 0.00 0.00 38 1018.0
20260505233005 17 189 4.8 14.5 0.00 0.00 0.00 38 1018.0
20260505232504 17 209 4.8 19.3 0.00 0.00 0.00 38 1018.0
20260505232004 17 2 1.6 9.7 0.00 0.00 0.00 39 1018.1
20260505231504 17 149 1.6 4.8 0.00 0.00 0.00 39 1018.0
20260505231004 17 146 3.2 11.3 0.00 0.00 0.00 39 1018.0
20260505230504 17 171 3.2 11.3 0.00 0.00 0.00 39 1018.0
20260505230004 17 218 4.8 12.9 0.00 0.00 0.00 38 1018.0
20260505225504 17 187 1.6 8.0 0.00 0.00 0.00 39 1018.2
20260505225003 17 200 1.6 8.0 0.00 0.00 0.00 38 1018.1
20260505224504 17 239 4.8 9.7 0.00 0.00 0.00 37 1018.2
20260505224004 17 223 3.2 19.3 0.00 0.00 0.00 38 1018.2
20260505223505 17 173 1.6 9.7 0.00 0.00 0.00 37 1018.3
20260505223003 18 188 4.8 14.5 0.00 0.00 0.00 37 1018.3
20260505222503 18 216 6.4 11.3 0.00 0.00 0.00 37 1018.3
20260505222004 18 295 6.4 16.1 0.00 0.00 0.00 37 1018.2
20260505221004 17 187 1.6 11.3 0.00 0.00 0.00 38 1018.4
20260505220504 17 232 6.4 16.1 0.00 0.00 0.00 38 1018.5
20260505220003 17 243 4.8 11.3 0.00 0.00 0.00 38 1018.5
20260505215504 17 151 8.0 12.9 0.00 0.00 0.00 38 1018.5
20260505215003 17 14 1.6 8.0 0.00 0.00 0.00 39 1018.5
20260505214503 16 53 1.6 8.0 0.00 0.00 0.00 40 1018.6
20260505214003 16 192 3.2 11.3 0.00 0.00 0.00 40 1018.7
20260505213005 16 151 4.8 14.5 0.00 0.00 0.00 40 1018.9
20260505212503 16 192 4.8 14.5 0.00 0.00 0.00 41 1018.9
20260505211004 16 276 1.6 9.7 0.00 0.00 0.00 40 1019.1
20260505210504 16 297 4.8 19.3 0.00 0.00 0.00 40 1019.0
20260505210004 16 192 4.8 19.3 0.00 0.00 0.00 40 1019.1
20260505205503 17 144 1.6 12.9 0.00 0.00 0.00 41 1019.1
20260505205004 16 154 4.8 12.9 0.00 0.00 0.00 41 1019.0
20260505204003 16 237 8.0 12.9 0.00 0.00 0.00 41 1018.9
20260505203504 16 271 1.6 11.3 0.00 0.00 0.00 42 1018.9
20260505203003 16 278 9.7 14.5 0.00 0.00 0.00 42 1018.8
20260505202503 16 247 4.8 11.3 0.00 0.00 0.00 42 1019.1
20260505202004 16 187 6.4 11.3 0.00 0.00 0.00 43 1019.2
20260505201004 16 271 1.6 11.3 0.00 0.00 0.00 42 1019.3
20260505200504 15 243 0.0 4.8 0.00 0.00 0.00 42 1019.3
20260505195504 15 248 0.0 11.3 0.00 0.00 0.00 42 1019.4
20260505195004 16 332 3.2 8.0 0.00 0.00 0.00 42 1019.4
20260505194504 15 358 3.2 9.7 0.00 0.00 0.00 43 1019.6
20260505194003 15 16 3.2 4.8 0.00 0.00 0.00 43 1019.6